• MPC Preparation (Info)

  • MPEC 2013-P29 : 2013 PX6

    The following Minor Planet Electronic Circular may be linked-to from your own Web pages, but must not otherwise be redistributed electronically.

    A form allowing access to any MPEC is at the bottom of this page.


    Read MPEC 2013-P28 Read MPEC 2013-P30


    M.P.E.C. 2013-P29                                Issued 2013 Aug. 5, 17:01 UT
    
         The Minor Planet Electronic Circulars contain information on unusual
             minor planets and routine data on comets.  They are published
       on behalf of Commission 20 of the International Astronomical Union by the
              Minor Planet Center, Smithsonian Astrophysical Observatory,
                              Cambridge, MA 02138, U.S.A.
    
                 Prepared using the Tamkin Foundation Computer Network
    
                                  MPC@CFA.HARVARD.EDU
                URL https://www.minorplanetcenter.net/    ISSN 1523-6714
    
                                       2013 PX6
    
    Observations:
         K13P06X* C2013 08 02.99670 23 37 14.31 +19 58 37.7          19.2 VrEP029J75
         K13P06X  C2013 08 03.00671 23 37 15.47 +19 58 49.4          19.2 VrEP029J75
         K13P06X  C2013 08 03.01674 23 37 16.74 +19 59 00.8          19.7 VrEP029J75
         K13P06X KC2013 08 03.48366 23 38 13.67 +20 07 24.1          19.0 RoEP029291
         K13P06X KC2013 08 03.48590 23 38 13.95 +20 07 26.4          19.0 RoEP029291
         K13P06X KC2013 08 03.48814 23 38 14.20 +20 07 29.0          19.1 RoEP029291
         K13P06X KC2013 08 03.88937 23 39 05.28 +20 14 38.2          19.0 RtEP029A79
         K13P06X KC2013 08 03.89469 23 39 05.99 +20 14 44.0          18.9 RtEP029A79
         K13P06X KC2013 08 03.90108 23 39 06.70 +20 14 51.2          18.8 RtEP029A79
         K13P06X KC2013 08 03.91750 23 39 08.89 +20 15 06.5                tEP029204
         K13P06X KC2013 08 03.92535 23 39 09.82 +20 15 13.2                qEP029J95
         K13P06X KC2013 08 03.92668 23 39 09.98 +20 15 16.9          19.2 RqEP029104
         K13P06X KC2013 08 03.92815 23 39 10.15 +20 15 18.4                tEP029204
         K13P06X KC2013 08 03.93037 23 39 10.44 +20 15 21.0          19.0 RqEP029104
         K13P06X KC2013 08 03.93148 23 39 10.58 +20 15 20.5                qEP029J95
         K13P06X KC2013 08 03.93406 23 39 10.91 +20 15 25.3          19.0 RqEP029104
         K13P06X KC2013 08 03.93538 23 39 11.09 +20 15 25.8          19.4  uEP029B04
         K13P06X KC2013 08 03.93717 23 39 11.31 +20 15 27.9          19.5  uEP029B04
         K13P06X KC2013 08 03.93758 23 39 11.32 +20 15 28.5          18.8 RtEP029204
         K13P06X KC2013 08 03.93767 23 39 11.33 +20 15 26.9          19.1 RqEP029J95
         K13P06X KC2013 08 03.93896 23 39 11.53 +20 15 29.9          19.5  uEP029B04
         K13P06X KC2013 08 03.94531 23 39 12.32 +20 15 37.0          19.7  uEP029B04
         K13P06X KC2013 08 03.97311 23 39 15.61 +20 16 06.8          19.6 VqEP029C47
         K13P06X KC2013 08 03.98171 23 39 16.67 +20 16 16.6          19.6 VqEP029C47
         K13P06X KC2013 08 03.99078 23 39 17.79 +20 16 26.3          19.3 VqEP029C47
         K13P06X KC2013 08 04.06037 23 39 26.34 +20 17 42.4          19.4 VtEP029595
         K13P06X KC2013 08 04.07093 23 39 27.59 +20 17 53.9                tEP029595
         K13P06X KC2013 08 04.16561 23 39 39.96 +20 19 51.1          18.9 RqEP029Y00
         K13P06X KC2013 08 04.17543 23 39 41.16 +20 20 01.8          19.2 RqEP029Y00
         K13P06X KC2013 08 04.18526 23 39 42.35 +20 20 12.5          18.9 RqEP029Y00
         K13P06X KC2013 08 04.25704 23 39 51.58 +20 21 15.6          19.5 VqEP029H21
         K13P06X KC2013 08 04.26021 23 39 51.96 +20 21 19.2          19.5 VqEP029H21
         K13P06X KC2013 08 04.26339 23 39 52.37 +20 21 22.6          19.2 VqEP029H21
         K13P06X KC2013 08 04.40276323 40 09.62 +20 23 56.3          19.6  qEP029V37
         K13P06X KC2013 08 04.40908623 40 10.40 +20 24 03.3          19.0  qEP029V37
         K13P06X KC2013 08 04.41539923 40 11.15 +20 24 09.9          18.9  qEP029V37
         K13P06X KC2013 08 05.02898 23 41 30.59 +20 35 14.6          18.9 RtEP029J04
         K13P06X KC2013 08 05.03036 23 41 30.76 +20 35 16.1          18.7 RtEP029J04
         K13P06X KC2013 08 05.03175 23 41 30.93 +20 35 17.7          18.8 RtEP029J04
         K13P06X KC2013 08 05.14771 23 41 45.98 +20 37 20.0          19.1 VuEP029932
         K13P06X KC2013 08 05.15280 23 41 46.65 +20 37 25.5          19.6 VuEP029932
         K13P06X KC2013 08 05.15790 23 41 47.28 +20 37 31.1                uEP029932
         K13P06X KC2013 08 05.16303 23 41 47.90 +20 37 36.9                uEP029932
    
    Observer details:
    104 San Marcello Pistoiese.  Observer P. Bacci.  Measurers P. Bacci, L. Tesi,
        G. Fagioli.  0.60-m f/4 reflector + CCD.
    204 Schiaparelli Observatory.  Observer L. Buzzi.  0.60-m f/4.64 reflector
        + CCD.
    291 LPL/Spacewatch II.  Observer T. H. Bressi.  1.8-m f/2.7 reflector + CCD.
    595 Farra d'Isonzo.  Observer E. Pettarin.  0.61-m f/4.0 reflector + CCD.
    932 John J. McCarthy Obs., New Milford.  Observers M. Polansky, C. KleinStern,
        D. Marmaropoulou.  0.4-m f/5 Schmidt-Cassegrain + CCD.
    A79 Zvezdno Obshtestvo Observatory, Plana.  Observers F. Fratev, M. Minkov.
        Measurer F. Fratev.  0.35-m f/3.46 reflector + CCD.
    B04 OAVdA, Saint-Barthelemy.  Observer A. Carbognani.  0.81-m f/7.9 reflector
        + CCD.
    C47 Nonndorf.  Observer G. Dangl.  0.25-m f/4.8 reflector + CCD.
    H21 Astronomical Research Observatory, Westfield.  Observer R. Holmes.
        Measurers L. Buzzi, T. Vorobjov, S. Foglia, H. Devore.  0.61-m f/4.0
        astrograph + CCD.
    J04 ESA Optical Ground Station, Tenerife.  Observer D. Abreu.  Measurers
        D. Koschny, M. Busch, E. Schwab.  1.0-m f/4.4 reflector + CCD.
    J75 OAM Observatory, La Sagra.  Observers S. Sanchez, J. Nomen, M. Hurtado,
        J. A. Jaume, W. K. Y. Yeung, F. Serra, T. Valls, J. Hurtado.  0.45-m f/2.8
        reflector + CCD.
    J95 Great Shefford.  Observer P. Birtwhistle.  0.40-m f/6.0 Schmidt-Cassegrain
        + CCD.
    V37 McDonald Observatory-LCOGT ELP.  Observer T. Lister.  1.0-m f/8
        Ritchey-Chretien + CCD.
    Y00 SONEAR Observatory, Oliveira.  Observers C. Jacques, E. Pimentel,
        J. Barros.  Measurer C. Jacques.  0.30-m f/3.0 reflector + CCD.
    
    Orbital elements:
    2013 PX6                                            PHA, Earth MOID = 0.0262 AU
    Epoch 2013 Apr. 18.0 TT = JDT 2456400.5                 MPC
    M 317.18466              (2000.0)            P               Q
    n   0.22244020     Peri.  228.58666     +0.55398644     -0.83187284
    a   2.6977014      Node   187.97716     +0.81699536     +0.55083795
    e   0.6650001      Incl.   13.74058     +0.16005502     +0.06756573
    P   4.43           H   18.0           G   0.15           U   8
    Residuals in seconds of arc
    130802 J75  0.2+  0.9-    130803 104  0.0   0.2+    130804 H21  0.1+  0.2-
    130803 J75  0.3-  0.1-    130803 B04  0.2+  0.3-    130804 H21  0.1-  0.0
    130803 J75  0.7+  0.3+    130803 B04  0.2+  0.1-    130804 H21  0.2+  0.1-
    130803 291  0.1-  0.1+    130803 204  0.2-  0.0     130804 V37  0.0   0.0
    130803 291  0.1+  0.0     130803 J95  0.2-  0.2-    130804 V37  0.1+  0.1+
    130803 291  0.2-  0.2+    130803 B04  0.2+  0.1-    130804 V37  0.1-  0.1-
    130803 A79  0.7-  1.0+    130803 B04  0.3+  0.0     130805 J04  0.0   0.0
    130803 A79  0.1+  1.0+    130803 C47  0.2-  0.3-    130805 J04  0.1-  0.0
    130803 A79  1.0-  1.2+    130803 C47  0.1-  0.1+    130805 J04  0.1-  0.0
    130803 204  0.5+  0.0     130803 C47  0.0   0.1-    130805 932  0.1+  0.1+
    130803 J95  0.1+  0.4-    130804 595  0.5+  0.1-    130805 932  0.4+  0.0
    130803 104  0.3-  0.1-    130804 595  0.1-  0.1-    130805 932  0.1+  0.1-
    130803 204  0.3-  0.2+    130804 Y00  0.1+  0.1-    130805 932  0.3-  0.0
    130803 104  0.2-  0.1-    130804 Y00  0.2+  0.1-
    130803 J95  0.1+  0.2+    130804 Y00  0.2+  0.2-
    
    Ephemeris:
    2013 PX6                 a,e,i = 2.70, 0.67, 14                  q = 0.9037
    Date    TT    R. A. (2000) Decl.     Delta      r     Elong.  Phase     V
    2013 07 06    22 51 02.4 +12 19 23   1.0496  1.7288   113.6    32.6    20.7
    ...
    2013 07 21    23 13 42.4 +16 15 55   0.8153  1.5904   120.2    33.5    20.0
    ...
    2013 07 29    23 27 31.4 +18 30 52   0.6997  1.5159   123.2    34.1    19.5
    ...
    2013 08 04    23 39 18.5 +20 16 43   0.6174  1.4599   125.1    34.6    19.2
    2013 08 05    23 41 26.1 +20 34 46   0.6041  1.4506   125.4    34.8    19.1
    2013 08 06    23 43 36.9 +20 52 56   0.5909  1.4413   125.7    34.9    19.1
    ...
    2013 08 12    23 58 06.1 +22 44 32   0.5142  1.3856   127.1    35.7    18.7
    ...
    2013 08 20    00 22 51.0 +25 19 59   0.4190  1.3122   128.0    37.4    18.2
    ...
    2013 09 04    01 44 55.9 +29 55 28   0.2673  1.1796   124.2    45.0    17.2
    
    A. U. Tomatic                (C) Copyright 2013 MPC           M.P.E.C. 2013-P29
    

    Read MPEC 2013-P28 Read MPEC 2013-P30


    MPEC number:

    Enter an MPEC number in one of the following forms:

    • 1997-B01 (the full form)
    • J97B01 (the packed version of the full form)
    • B01 (the abbreviated form)